Regional Weather Roundup
Issued by NWS Upton, NY

Current Version | Previous Version | Graphics & Text | Print | Product List | Glossary Off
Versions: 1 2 3 4 5 6 7 8 9 10 11 12 13 14 15 16 17 18 19 20 21 22 23 24 25 26 27 28 29 30 31 32 33 34 35 36 37 38 39 40 41 42 43 44 45 46 47 48 49 50

867
ASUS41 KOKX 050304
RWROKX

REGIONAL WEATHER ROUNDUP
NATIONAL WEATHER SERVICE NEW YORK NY
1000 PM EST THU FEB 04 2016

NOTE: "FAIR" INDICATES FEW OR NO CLOUDS BELOW 12,000 FEET WITH NO
SIGNIFICANT WEATHER AND/OR OBSTRUCTIONS TO VISIBILITY.

NYZ071-072-176-178-NJZ106-104-050400-
NEW YORK CITY METRO AREA


CITY           SKY/WX    TMP DP  RH WIND       PRES   REMARKS
CENTRAL PARK   CLOUDY    46  29  51 NE9       30.10R
LAGUARDIA APRT LGT RAIN  48  30  49 NE9       30.08R
KENNEDY INTL   LGT RAIN  47  32  56 NE10      30.09R
NEWARK/LIBERTY CLOUDY    46  30  53 N12       30.09R
BRNX BOT. GARD   N/A     45  30  57 N6        30.09R
TETERBORO      CLOUDY    46  27  47 N6        30.08R
$$

NYZ177-179-078>081-050400-
LONG ISLAND NEW YORK

CITY           SKY/WX    TMP DP  RH WIND       PRES   REMARKS
FARMINGDALE    LGT RAIN  44  34  67 NE12      30.06S
ISLIP          LGT RAIN  43  34  70 N9        30.05R
SHIRLEY        LGT RAIN  42  35  76 N6        30.08R
RIVERHEAD        N/A     43  32  65 N2        30.09R
WESTHAMPTON    LGT RAIN  42  36  79 N8        30.07R
EAST HAMPTON   CLOUDY    42  36  78 N5        30.04S
MONTAUK POINT    N/A     44  39  82 N3        30.07R
$$

NYZ052-065-067-050400-
HUDSON VALLEY

CITY           SKY/WX    TMP DP  RH WIND       PRES   REMARKS
WHITE PLAINS   CLOUDY    43  28  55 N7        30.07R
NEWBURGH       MOCLDY    39  28  65 NE12      30.09S WCI  32
MONTGOMERY     CLOUDY    37  28  70 N5        30.09R WCI  33
POUGHKEEPSIE   CLOUDY    42  26  53 NE6       30.10R
ALBANY         CLOUDY    37  26  64 W10       30.13R WCI  30
$$

NJZ001-105-106-008-010-013-015-019>022-104-050400-
NEW JERSEY

CITY           SKY/WX    TMP DP  RH WIND       PRES   REMARKS
NEWARK/LIBERTY CLOUDY    46  30  53 N12       30.09R
TETERBORO      CLOUDY    46  27  47 N6        30.08R
CALDWELL       CLOUDY    45  26  47 NE8       30.10R
MORRISTOWN     CLOUDY    45  30  57 N3        30.10R
SOMERVILLE     CLOUDY    44  27  51 NW3       30.08R
SUSSEX         CLOUDY    40  26  57 NE3       30.10R
ANDOVER          N/A     40  27  59 CALM      30.10R
TRENTON        LGT RAIN  44  30  57 N9        30.05F
MILLVILLE      LGT RAIN  41  40  96 CALM      30.07S
ATLANTIC CITY  RAIN      42  40  92 N5        30.05F FOG
WRIGHTSTOWN    LGT RAIN  42  42  99 N8        30.02F
TOMS RIVER     CLOUDY    43  37  81 N5        30.05S
BELMAR         CLOUDY    45  36  70 NW3       30.07R
$$

PAZ047>061-062-071-050400-
EASTERN PENNSYLVANIA

CITY           SKY/WX    TMP DP  RH WIND       PRES   REMARKS
PHILADELPHIA   LGT RAIN  45  33  63 N7        30.07F
ALLENTOWN      CLOUDY    41  27  57 NW5       30.09R
SCRANTON       CLOUDY    38  26  62 CALM      30.11R
$$

CTZ002-004>006-009-010-012-RIZ004-006-007-MAZ004-011-015-050400-
SOUTHERN NEW ENGLAND
 IN CT

CITY           SKY/WX    TMP DP  RH WIND       PRES   REMARKS
BRADLEY INTL   CLOUDY    43  25  49 VRB6      30.08S
HARTFORD       CLOUDY    45  25  45 N8        30.08F
DANBURY        CLOUDY    42  23  46 N9        30.09R
WTRBRY/OXFORD  CLOUDY    39  21  48 N12       30.08S WCI  32
BRIDGEPORT     CLOUDY    45  28  51 N9        30.09R
MERIDEN        CLOUDY    44  25  47 N9        30.06F
NEW HAVEN      CLOUDY    44  27  51 N8        30.08R
CHESTER        CLOUDY    43  30  61 N7        30.07R
GROTON         CLOUDY    45  34  65 N10       30.05R
WILLIMANTIC    CLOUDY    45  28  51 N7        30.07S

 IN RI

CITY           SKY/WX    TMP DP  RH WIND       PRES   REMARKS
PROVIDENCE     LGT RAIN  44  34  67 N7        30.05F
BLOCK ISLAND   CLOUDY    45  41  87 NE5       30.03S
WESTERLY       CLOUDY    44  39  82 N5        30.05F

 IN MA

CITY           SKY/WX    TMP DP  RH WIND       PRES   REMARKS
BOSTON         CLOUDY    47  30  51 N8        30.06F
WORCESTER      CLOUDY    40  25  55 N7        30.03F
WESTFIELD      CLOUDY    40  26  57 N7        30.07F
PROVINCETOWN   LGT RAIN  43  39  86 NE7       30.05F
NANTUCKET      LGT RAIN  47  44  90 N12       30.03F FOG
$$

ANZ330-335-338-340-345-350-353-355-050400-
COASTAL MARINE OBSERVATIONS


STATION/POSITION TIME  SKY/WX   TEMP    WIND        PRES    VSBY  WAVE
                                AIR SEA DIR/SP/G                  HT/PER
                 (UTC)          (F)     (DEG/KT/KT) (MB)    (MI)  (FT/S)
NY HARB ENTRANCE 0150            45 44  230/  2/  2 1018.0          5/10
4S FIRE IS       NOT AVBL
20S FIRE ISLAND  0150            44 42  360/  4/  6 1017.5          6/ 9
GREAT SOUTH BAY  NOT AVBL
23SW MTP         0250            44 44   20/ 10/ 12 1017.0          7/ 9
HUDSON CANYON    0150            47 51              1016.2          6/ 9
KINGS POINT      0200            45 40   60/  7/ 10 1018.0
EXECUTION ROCKS  NOT AVBL
CENTRAL LI SOUND 0200            44     360/ 14/ 16   N/A           1/ 2
EASTERN LI SOUND 0200            45 43  360/ 12/ 14   N/A
ROBBINS REEF     0200            47      20/ 10/ 12 1017.2
$$


>>>>>>>>>>>>>>>>>>>>>>>>>>>> KEY <<<<<<<<<<<<<<<<<<<<<<<<<<<
>                                                          <
>     SKY/WX - SKY CONDITION/PRESENT WEATHER               <
>     TMP    - TEMPERATURE IN FAHRENHEIT                   <
>     DP     - DEWPOINT IN FAHRENHEIT                      <
>     RH     - RELATIVE HUMIDITY IN PERCENT                <
>     WIND   - DIRECTION AND SPEED IN MPH                  <
>     PRES   - MEAN SEA LEVEL PRESSURE IN INCHES OF HG     <
>     WCI    - WIND CHILL INDEX                            <
>     VSB    - VISIBILITY IN MILES                         <
>     HX     - HEAT INDEX                                  <
>     TC     - TEMPERATURE IN CELSIUS                      <
>     VRB    - VARIABLE WIND DIRECTION                     <
>                                                          <
>>>>>>>>>>>>>>>>>>>>>>>>>>>> KEY <<<<<<<<<<<<<<<<<<<<<<<<<<<






USA.gov is the U.S. government's official web portal to all federal, state and local government web resources and services.